[[{"header":{"parameterUnit":"m.s-1","parameterCategory":1,"la1":30.2991,"la2":30.254,"lo1":-89.0895,"lo2":-89.0444,"dy":0.0017,"dx":0.0017,"nx":28,"ny":28,"refTime":"2023-08-29T09:00:00:Z","depth":0,"parameterNumber":2,"parameterNumberName":"U-component_of_WINDS"},"data":[0,0,0,0,0,0,0,0,0,0,0,0,0,0,0,0,0,0,0,0,0,0,0,0,0,0,0,0,0,0,0,0,0,0,0,0,0,0,0,0,0,0,0,0,0,0,0,0,0,0,0,0,0,0,0,0,0,0,-0.2599,-0.2599,0,-0.2593,-0.2593,-0.2593,-0.2584,-0.2584,-0.2583,-0.2583,-0.2578,-0.2579,-0.2579,0,0,0,0,0,0,0,0,0,0,0,0,0,-0.26,-0.26,-0.2599,-0.2599,-0.2598,-0.2593,-0.2593,-0.2593,-0.2584,-0.2584,-0.2583,-0.2583,-0.2578,-0.2579,-0.2579,0,0,0,0,0,0,0,0,0,0,0,0,0,-0.2597,-0.26,-0.2599,-0.2593,-0.2593,-0.2594,-0.2593,-0.2593,-0.2584,-0.2584,-0.2583,-0.2583,-0.2578,-0.2579,-0.2579,-0.2585,0,0,-0.2579,-0.2579,0,0,0,0,0,0,0,0,-0.2598,-0.2597,-0.2594,-0.2594,-0.2593,-0.2589,-0.2592,-0.259,-0.2584,-0.2587,-0.2583,-0.2583,-0.2582,-0.2582,-0.2582,-0.2584,-0.2584,-0.2579,-0.2579,-0.2579,-0.2579,0,0,0,0,0,0,0,-0.2598,-0.2598,-0.2597,-0.2594,-0.2593,-0.2591,-0.259,-0.2592,-0.2586,-0.2587,-0.2586,-0.2586,-0.2582,-0.2582,-0.2581,-0.2584,-0.2579,-0.2579,-0.2579,-0.2579,-0.259,-0.2591,0,0,0,0,0,0,-0.2599,-0.2598,-0.2597,-0.2596,-0.2595,-0.2591,-0.259,-0.2591,-0.2586,-0.2585,-0.2586,-0.2585,-0.2582,-0.2581,-0.2581,-0.2587,-0.2579,-0.2579,-0.2579,-0.259,-0.259,-0.2591,0,0,0,0,0,0,-0.2599,-0.2599,-0.2597,-0.2597,-0.2596,-0.2591,-0.2592,-0.2591,-0.259,-0.2586,-0.2585,-0.2587,-0.2581,-0.2581,-0.2584,-0.2587,-0.2579,-0.2579,-0.259,-0.259,-0.2591,-0.26,0,0,0,0,0,0,-0.2599,-0.2599,-0.2601,-0.2597,-0.2597,-0.26,-0.2592,-0.2591,-0.259,-0.2589,-0.2586,-0.2585,-0.2581,-0.2584,-0.2584,-0.2587,-0.2579,-0.2589,-0.259,-0.259,-0.26,-0.2601,-0.2602,0,0,0,0,0,-0.2599,-0.2604,-0.2601,-0.2601,-0.2599,-0.26,-0.2599,-0.2595,-0.2591,-0.2593,-0.259,-0.2585,-0.2587,-0.2584,-0.2584,-0.2587,-0.2589,-0.259,-0.259,-0.2599,-0.2601,-0.2602,0,0,0,0,0,0,-0.261,-0.2604,-0.26,-0.2605,-0.2603,-0.2598,-0.2601,-0.2597,-0.2596,-0.2595,-0.2589,-0.2588,-0.2592,-0.259,-0.2587,-0.2592,-0.2587,-0.2588,-0.2594,-0.2595,-0.2596,-0.2597,-0.2579,0,0,0,0,0,-0.2612,-0.2613,-0.2608,-0.2612,-0.2612,-0.2606,-0.2606,-0.2603,-0.26,-0.26,-0.2597,-0.2595,-0.2595,-0.2595,-0.2594,-0.2599,-0.2598,-0.2601,-0.2603,-0.2604,-0.2604,-0.2606,-0.2607,-0.2593,-0.2593,-0.2593,0,0,-0.2618,-0.2615,-0.2616,-0.2614,-0.2613,-0.2613,-0.2606,-0.2607,-0.2608,-0.26,-0.2602,-0.2599,-0.2597,-0.26,-0.2601,-0.2599,-0.2608,-0.2604,-0.2605,-0.2605,-0.2607,-0.2608,-0.2609,-0.2593,-0.2593,-0.2593,0,0,-0.263,-0.2628,-0.2631,-0.2629,-0.2625,-0.2622,-0.2622,-0.2618,-0.2616,-0.2618,-0.2612,-0.2612,-0.2612,-0.2611,-0.261,-0.2619,-0.2614,-0.2619,-0.2625,-0.2627,-0.2628,-0.2629,-0.2632,-0.2633,-0.2619,-0.2619,-0.2619,0,-0.2638,-0.2639,-0.2633,-0.2634,-0.2633,-0.2626,-0.2629,-0.2627,-0.2624,-0.2623,-0.262,-0.262,-0.2617,-0.262,-0.2622,-0.2621,-0.2622,-0.2619,-0.2628,-0.2629,-0.263,-0.2633,-0.2634,-0.262,-0.262,-0.262,-0.262,0,-0.2648,-0.2649,-0.2652,-0.2649,-0.2648,-0.265,-0.2644,-0.2644,-0.264,-0.2637,-0.2638,-0.2635,-0.2634,-0.2634,-0.263,-0.2635,-0.2634,-0.263,-0.2624,-0.2632,-0.2635,-0.2636,-0.2621,-0.2621,-0.262,-0.262,0,0,-0.2667,-0.266,-0.2661,-0.2659,-0.2655,-0.2655,-0.2656,-0.2655,-0.2655,-0.2652,-0.2653,-0.2653,-0.2649,-0.2648,-0.2643,-0.2645,-0.2652,-0.264,-0.264,-0.2642,-0.2657,-0.266,-0.2661,-0.2649,-0.2649,-0.2649,-0.2657,0,-0.2678,-0.268,-0.2674,-0.2677,-0.2678,-0.267,-0.2671,-0.2668,-0.2665,-0.2664,-0.266,-0.266,-0.2655,-0.2654,-0.2655,-0.2651,-0.2654,-0.265,-0.2649,-0.2649,-0.265,-0.2663,-0.2666,-0.2674,-0.2658,-0.2658,-0.2658,0,-0.269,-0.2688,-0.2692,-0.2686,-0.2686,-0.2687,-0.2684,-0.2684,-0.268,-0.2678,-0.2676,-0.2671,-0.2671,-0.2666,-0.2666,-0.2663,-0.2662,-0.266,-0.266,-0.266,-0.2654,-0.2663,-0.2676,-0.2678,-0.266,-0.2659,-0.2659,0,-0.2704,-0.2702,-0.2703,-0.2702,-0.2695,-0.2696,-0.2694,-0.269,-0.2689,-0.2686,-0.2685,-0.2683,-0.2682,-0.268,-0.2674,-0.2671,-0.2675,-0.2669,-0.2673,-0.2673,-0.2675,-0.2675,-0.2688,-0.2674,-0.2674,-0.2674,-0.2674,0,-0.2716,-0.2718,-0.2709,-0.271,-0.2712,-0.2705,-0.2707,-0.2704,-0.27,-0.27,-0.2693,-0.2693,-0.2685,-0.2684,-0.268,-0.2681,-0.268,-0.2678,-0.2677,-0.2679,-0.2679,-0.2678,-0.2678,-0.2674,-0.2674,-0.2674,-0.2674,0,-0.2732,-0.2725,-0.2727,-0.272,-0.2718,-0.272,-0.2714,-0.2715,-0.271,-0.271,-0.271,-0.2703,-0.2701,-0.2695,-0.2692,-0.2689,-0.2691,-0.2689,-0.2692,-0.2692,-0.2695,-0.2695,-0.2709,-0.2711,-0.2695,-0.2695,-0.2696,0,-0.274,-0.2741,-0.2735,-0.2734,-0.2731,-0.2731,-0.2729,-0.2722,-0.2721,-0.2716,-0.2717,-0.2715,-0.2712,-0.271,-0.2705,-0.2702,-0.27,-0.2705,-0.2699,-0.2701,-0.27,-0.27,-0.2699,-0.2706,-0.2706,-0.2706,-0.2707,0,-0.2756,-0.2752,-0.275,-0.2747,-0.2746,-0.2743,-0.274,-0.274,-0.2732,-0.2731,-0.2729,-0.2727,-0.2723,-0.2721,-0.2717,-0.2714,-0.2709,-0.2708,-0.2709,-0.2711,-0.2713,-0.2712,-0.2696,-0.2708,-0.2708,-0.2708,-0.2708,-0.2708,-0.2768,-0.2768,-0.2763,-0.2762,-0.2758,-0.2755,-0.2755,-0.275,-0.2748,-0.2745,-0.274,-0.2739,-0.2734,-0.2728,-0.2726,-0.2724,-0.2721,-0.2722,-0.2723,-0.2723,-0.2724,-0.2713,-0.2723,-0.2723,-0.2723,-0.2723,-0.2723,0,-0.2783,-0.2779,-0.2777,-0.2773,-0.2771,-0.2765,-0.2761,-0.276,-0.2759,-0.2755,-0.2753,-0.275,-0.2747,-0.2741,-0.2738,-0.2738,-0.2735,-0.2737,-0.2737,-0.2736,-0.2727,-0.2726,-0.2739,-0.2739,-0.2739,-0.2739,-0.2739,-0.2739,-0.279,-0.2791,-0.2787,-0.2786,-0.2782,-0.278,-0.2778,-0.2775,-0.2771,-0.2769,-0.2766,-0.2762,-0.2757,-0.2753,-0.275,-0.2748,-0.2747,-0.275,-0.2748,-0.2739,-0.2737,-0.2736,-0.2735,-0.275,-0.275,-0.2758,-0.2758,-0.2758]},{"header":{"parameterUnit":"m.s-1","parameterCategory":1,"la1":30.2991,"la2":30.254,"lo1":-89.0895,"lo2":-89.0444,"dy":0.0017,"dx":0.0017,"nx":28,"ny":28,"refTime":"2023-08-29T09:00:00:Z","depth":0,"parameterNumber":3,"parameterNumberName":"V-component_of_WINDS"},"data":[0,0,0,0,0,0,0,0,0,0,0,0,0,0,0,0,0,0,0,0,0,0,0,0,0,0,0,0,0,0,0,0,0,0,0,0,0,0,0,0,0,0,0,0,0,0,0,0,0,0,0,0,0,0,0,0,0,0,-7.1829,-7.183,0,-7.1912,-7.1913,-7.1914,-7.1858,-7.1855,-7.1852,-7.185,-7.1928,-7.1932,-7.1936,0,0,0,0,0,0,0,0,0,0,0,0,0,-7.1617,-7.1621,-7.1829,-7.183,-7.1831,-7.1912,-7.1913,-7.1914,-7.1858,-7.1855,-7.1852,-7.1849,-7.1926,-7.1931,-7.1937,0,0,0,0,0,0,0,0,0,0,0,0,0,-7.1705,-7.1622,-7.1829,-7.1813,-7.1813,-7.1911,-7.1913,-7.1914,-7.1859,-7.1855,-7.1851,-7.1847,-7.1925,-7.1931,-7.1938,-7.2054,0,0,-7.1958,-7.1961,0,0,0,0,0,0,0,0,-7.17,-7.1713,-7.1814,-7.1814,-7.1814,-7.1871,-7.1866,-7.1961,-7.186,-7.1841,-7.185,-7.1846,-7.1911,-7.1919,-7.1942,-7.2058,-7.2061,-7.1958,-7.1962,-7.1965,-7.1967,0,0,0,0,0,0,0,-7.1694,-7.1709,-7.1861,-7.1816,-7.1816,-7.18,-7.1808,-7.1884,-7.1896,-7.1842,-7.1838,-7.1849,-7.191,-7.1936,-7.1944,-7.2062,-7.1958,-7.1964,-7.1968,-7.1971,-7.2279,-7.2283,0,0,0,0,0,0,-7.169,-7.1704,-7.1859,-7.1864,-7.1747,-7.1807,-7.1816,-7.1856,-7.1895,-7.1898,-7.1853,-7.1846,-7.1927,-7.1936,-7.1946,-7.2086,-7.1965,-7.1971,-7.1975,-7.2274,-7.228,-7.2284,0,0,0,0,0,0,-7.1686,-7.1705,-7.1856,-7.1783,-7.1801,-7.1815,-7.186,-7.186,-7.1885,-7.1903,-7.1904,-7.1877,-7.1924,-7.1937,-7.2029,-7.2088,-7.1974,-7.198,-7.2269,-7.2276,-7.2282,-7.2367,0,0,0,0,0,0,-7.168,-7.1703,-7.1749,-7.1785,-7.1805,-7.1938,-7.1864,-7.1864,-7.1898,-7.1891,-7.1926,-7.1928,-7.1922,-7.2019,-7.2035,-7.2095,-7.1986,-7.2264,-7.2272,-7.228,-7.2358,-7.2375,-7.2389,0,0,0,0,0,-7.1673,-7.1768,-7.1752,-7.1771,-7.1863,-7.1942,-7.1953,-7.1946,-7.1903,-7.1948,-7.196,-7.1927,-7.2079,-7.2029,-7.2047,-7.2109,-7.226,-7.227,-7.2279,-7.2352,-7.2372,-7.2389,0,0,0,0,0,0,-7.1735,-7.1772,-7.1755,-7.1865,-7.1901,-7.1932,-7.1989,-7.1968,-7.2015,-7.2006,-7.1993,-7.2001,-7.2097,-7.2112,-7.2056,-7.2225,-7.2163,-7.2176,-7.2212,-7.2231,-7.2246,-7.224,-7.1991,0,0,0,0,0,-7.1763,-7.1826,-7.1853,-7.1948,-7.1967,-7.1976,-7.2009,-7.2001,-7.2037,-7.2051,-7.2069,-7.2104,-7.2159,-7.2196,-7.2248,-7.2361,-7.2367,-7.2413,-7.2428,-7.244,-7.2452,-7.2513,-7.2534,-7.2315,-7.2315,-7.2315,0,0,-7.1818,-7.1846,-7.1886,-7.1961,-7.1988,-7.2052,-7.1989,-7.2058,-7.2105,-7.2061,-7.215,-7.2164,-7.2202,-7.2305,-7.2351,-7.232,-7.2514,-7.2452,-7.2462,-7.2467,-7.2525,-7.2546,-7.2564,-7.2322,-7.232,-7.2319,0,0,-7.1953,-7.1981,-7.2063,-7.2093,-7.2136,-7.2141,-7.2161,-7.2196,-7.2205,-7.2295,-7.2263,-7.2318,-7.2413,-7.2442,-7.2469,-7.2617,-7.2588,-7.2634,-7.2713,-7.2773,-7.279,-7.2805,-7.2858,-7.2877,-7.2645,-7.2645,-7.2646,0,-7.2016,-7.2113,-7.2107,-7.2181,-7.2214,-7.2181,-7.2263,-7.2291,-7.2348,-7.2371,-7.2337,-7.2458,-7.248,-7.259,-7.2626,-7.2649,-7.267,-7.2629,-7.2789,-7.2804,-7.2818,-7.2868,-7.2888,-7.2651,-7.265,-7.265,-7.2649,0,-7.2189,-7.2257,-7.2318,-7.2377,-7.2418,-7.2495,-7.2499,-7.2541,-7.2529,-7.2538,-7.2629,-7.2656,-7.2713,-7.2738,-7.2726,-7.2847,-7.2826,-7.2791,-7.2728,-7.2844,-7.2891,-7.291,-7.2658,-7.2656,-7.2655,-7.2653,0,0,-7.2363,-7.2421,-7.2443,-7.247,-7.2517,-7.2568,-7.2644,-7.2703,-7.2738,-7.2779,-7.2841,-7.2924,-7.2893,-7.2923,-7.2914,-7.2967,-7.3083,-7.2925,-7.2926,-7.2953,-7.3217,-7.3243,-7.3266,-7.3065,-7.3069,-7.3072,-7.3214,0,-7.25,-7.2635,-7.2633,-7.2757,-7.282,-7.279,-7.2856,-7.2891,-7.2901,-7.2954,-7.2964,-7.3024,-7.2977,-7.2995,-7.3046,-7.3058,-7.3136,-7.3048,-7.3122,-7.3124,-7.3113,-7.329,-7.3318,-7.3451,-7.3232,-7.3235,-7.3237,0,-7.2678,-7.2728,-7.286,-7.2899,-7.2925,-7.2985,-7.3039,-7.3091,-7.3129,-7.3133,-7.3169,-7.3153,-7.3228,-7.3164,-7.3267,-7.3208,-7.3238,-7.3248,-7.3253,-7.3259,-7.3187,-7.33,-7.3493,-7.3513,-7.3266,-7.3264,-7.3262,0,-7.2792,-7.2892,-7.2985,-7.3009,-7.3056,-7.3099,-7.312,-7.3155,-7.3191,-7.3238,-7.3261,-7.3315,-7.3345,-7.3386,-7.3384,-7.3338,-7.3489,-7.3425,-7.3493,-7.3493,-7.3525,-7.3523,-7.3725,-7.3546,-7.3545,-7.3545,-7.3545,0,-7.2945,-7.3027,-7.3037,-7.3094,-7.3184,-7.318,-7.3269,-7.3286,-7.3318,-7.3376,-7.3352,-7.3407,-7.3401,-7.3456,-7.3454,-7.354,-7.3553,-7.3557,-7.3556,-7.356,-7.3559,-7.3578,-7.3569,-7.355,-7.3549,-7.3548,-7.3547,0,-7.3087,-7.3098,-7.3196,-7.3235,-7.3246,-7.3311,-7.3343,-7.3396,-7.3405,-7.3479,-7.3496,-7.3509,-7.3573,-7.3576,-7.3647,-7.3646,-7.3751,-7.3739,-7.3739,-7.3736,-7.3804,-7.3798,-7.4025,-7.4055,-7.3857,-7.3859,-7.386,0,-7.3184,-7.3247,-7.3293,-7.3332,-7.3357,-7.3419,-7.3457,-7.3455,-7.3495,-7.3545,-7.3592,-7.3654,-7.3703,-7.3805,-7.382,-7.3875,-7.3864,-7.394,-7.3871,-7.3874,-7.3865,-7.3861,-7.3867,-7.3953,-7.3955,-7.3957,-7.3958,0,-7.3355,-7.3358,-7.3414,-7.3474,-7.3521,-7.3566,-7.3609,-7.3641,-7.3644,-7.369,-7.3756,-7.3795,-7.387,-7.3931,-7.3985,-7.4004,-7.3982,-7.398,-7.3998,-7.4002,-7.4,-7.4002,-7.3775,-7.3974,-7.3972,-7.3971,-7.397,-7.397,-7.3477,-7.3532,-7.3574,-7.3638,-7.3671,-7.3712,-7.3764,-7.3782,-7.3838,-7.3901,-7.3896,-7.3969,-7.4006,-7.4077,-7.4101,-7.4157,-7.4131,-7.4158,-7.4164,-7.4171,-7.4178,-7.3992,-7.4167,-7.4166,-7.4166,-7.4165,-7.4165,0,-7.3647,-7.3673,-7.3732,-7.3795,-7.3845,-7.3823,-7.3869,-7.3912,-7.3978,-7.4016,-7.4066,-7.4142,-7.4202,-7.4223,-7.4281,-7.4321,-7.4312,-7.4336,-7.4333,-7.4338,-7.4199,-7.4177,-7.4343,-7.4343,-7.4343,-7.4343,-7.4343,-7.4343,-7.3741,-7.3833,-7.3841,-7.3949,-7.3974,-7.4048,-7.4077,-7.4114,-7.4144,-7.4232,-7.4282,-7.4297,-7.4328,-7.4388,-7.4441,-7.4446,-7.4468,-7.4496,-7.4496,-7.4365,-7.4348,-7.433,-7.431,-7.4501,-7.4501,-7.4631,-7.4632,-7.4633]}]]